Flag for U.S.A. Weather past 2 weeks in Dayton, Ohio, U.S.A.

Now
51 °F

Fog.


Feels Like: 51 °F
Forecast: 50 / 71 °F
Wind: 1 mph from West

Location: Dayton / Wright-Patterson Air Force Base

Current Time: Sep 18, 2014 at 12:33:16 AM

Latest Report: Sep 17, 2014 at 11:58 PM


Visibility: 10 mi

Pressure: 30.03 "Hg

Humidity: 91%

Dew point: 49 °F

Location of DaytonLocation

Historic Weather in Dayton — Graph

°F

Dayton temperature yesterday

Maximum temperature yesterday: 66 °F (at 5:58 PM)
Minimum temperature yesterday: 44 °F (at 4:58 AM)
Average temperature yesterday: 55 °F

Past Weeks' High & Low Weather Summary

 TemperatureHumidityPressure
High89 °F (Sep 5, 2:58 PM)100% (Sep 2, 10:58 PM)30.35 "Hg (Sep 2, 10:58 PM)
Low44 °F (Sep 17, 4:58 AM)39% (Sep 9, 4:58 PM)29.74 "Hg (Sep 11, 12:58 AM)
Average65 °F78%30.10 "Hg
* Reported Sep 2 10:58 PM — Sep 17 10:58 PM, Dayton, Weather by CustomWeather, © 2014

Note: Actual official high and low records may vary slightly from our data, if they occured in-between our weather recording intervals... More about our weather records

Advertising

Dayton weather history for previous 24 hours

 ConditionsComfort  
Time TempWeatherWind HumidityBarometerVisibility
10:58 PM
Sep 17
53 °FClear.No wind91%30.02 "Hg10 mi
9:58 PM54 °FClear.No wind83%30.00 "Hg7 mi
8:58 PM57 °FClear.No wind76%29.99 "Hg10 mi
7:58 PM60 °FSunny.No wind69%30.00 "Hg10 mi
6:58 PM62 °FSunny.2 mph60%30.00 "Hg10 mi
5:58 PM66 °FPassing clouds.5 mph52%30.01 "Hg10 mi
4:58 PM65 °FScattered clouds.2 mph55%30.01 "Hg10 mi
3:58 PM63 °FBroken clouds.2 mph55%30.03 "Hg10 mi
2:58 PM65 °FPartly sunny.No wind53%30.04 "Hg10 mi
1:58 PM65 °FPartly sunny.7 mph55%30.06 "Hg10 mi
12:58 PM63 °FPartly sunny.2 mph59%30.06 "Hg10 mi
11:58 AM59 °FOvercast.5 mph75%30.07 "Hg10 mi
10:58 AM56 °FOvercast.2 mph82%30.08 "Hg10 mi
9:58 AM54 °FOvercast.1 mph67%30.07 "Hg10 mi
8:58 AM50 °FFog.No wind100%30.09 "Hg6 mi
7:58 AM49 °FFog.2 mph99%30.10 "Hg5 mi
6:58 AM48 °FFog.No wind94%30.09 "Hg4 mi
5:58 AM47 °FFog.2 mph99%30.09 "Hg1 mi
4:58 AM44 °FFog.No wind99%30.09 "Hg1 mi
3:58 AM46 °FFog.No wind99%30.09 "Hg0 mi
2:58 AM47 °FFog.No wind99%30.10 "Hg0 mi
1:58 AM48 °FFog.No wind99%30.11 "Hg4 mi
12:58 AM47 °FClear.2 mph97%30.12 "Hg10 mi
Weather by CustomWeather, © 2014

See weather overviewHow to use our weather pages